Orbital Elements at Epoch 2459000.5 (2020-May-31.0) TDB
Reference: JPL 16 (heliocentric ecliptic J2000)
Element | Value | Uncertainty (1-sigma) | Units |
e | .122135156594866 | 6.6654e-08 | |
a | 3.001430773844845 | 3.1421e-08 | au |
q | 2.634850556272655 | 1.9123e-07 | au |
i | 10.20787234430813 | 6.4338e-06 | deg |
node | 200.7670224759899 | 3.4163e-05 | deg |
peri | 141.5486290732582 | 4.3983e-05 | deg |
M | 151.6005195657335 | 3.2593e-05 | deg |
tp | 2458200.685796241079 (2018-Mar-23.18579624) | 0.00016584 | TDB |
period | 1899.288433694085 5.20 | 2.9825e-05 8.166e-08 | d yr |
n | .1895446703162436 | 2.9764e-09 | deg/d |
Q | 3.368010991417036 | 3.5259e-08 | au |
|
| | Orbit Determination Parameters
Additional Information
|